Location: N�rnberg
(49.4489°N, 11.0797°E)
Time: 16:01:53
(UTC+02:00)

ISS - Visible Passes

Search period start: 18 May 2021 00:00
Search period end: 28 May 2021 00:00
Orbit: 417 x 422 km, 51.6° (Epoch: 18 May)

Date Brightness Start Highest point End Pass type
(mag) Time Alt. Az. Time Alt. Az. Time Alt. Az.
18 May -3.5 01:19:10 10° WNW 01:22:32 70° NNE 01:22:53 63° ENE visible
18 May -3.5 22:54:38 10° W 22:58:00 70° NNW 23:01:23 10° ENE visible
19 May -3.3 00:31:41 10° WNW 00:35:02 61° N 00:36:27 30° ENE visible
19 May -1.5 02:08:33 10° WNW 02:09:22 16° W 02:09:22 16° W visible
19 May -3.7 22:07:08 10° WSW 22:10:31 85° NNW 22:13:53 10° ENE visible
19 May -3.1 23:44:10 10° WNW 23:47:30 57° N 23:50:16 14° E visible
20 May -2.7 01:21:03 10° WNW 01:23:12 36° W 01:23:12 36° W visible
20 May -3.1 22:56:39 10° W 22:59:59 57° N 23:03:19 10° ENE visible
21 May -3.8 00:33:35 10° WNW 00:36:58 85° NNE 00:37:06 81° ENE visible
21 May -3.2 22:09:06 10° W 22:12:27 61° N 22:15:48 10° ENE visible
21 May -3.6 23:46:07 10° WNW 23:49:29 70° NNE 23:51:03 29° E visible
22 May -1.6 01:23:02 10° W 01:23:59 17° W 01:23:59 17° W visible
22 May -3.3 22:58:36 10° WNW 23:01:57 61° N 23:05:02 12° E visible
23 May -3.0 00:35:28 10° WNW 00:37:58 40° WSW 00:37:58 40° WSW visible
23 May -3.1 22:11:05 10° WNW 22:14:25 57° N 22:17:45 10° E visible
23 May -3.9 23:47:59 10° WNW 23:51:20 74° SSW 23:51:59 54° SE visible
24 May -3.8 23:00:29 10° WNW 23:03:52 86° NNE 23:06:01 21° ESE visible
25 May -1.8 00:37:34 10° W 00:38:56 19° WSW 00:38:56 19° WSW visible
25 May -3.5 22:12:59 10° WNW 22:16:22 70° NNE 22:19:44 10° E visible
25 May -3.0 23:49:55 10° W 23:53:00 37° SW 23:53:00 37° SW visible
26 May -3.5 23:02:21 10° WNW 23:05:39 53° SSW 23:07:05 29° SE visible
27 May -3.8 22:14:50 10° WNW 22:18:12 73° SSW 22:21:12 12° ESE visible
27 May -1.8 23:52:16 10° W 23:54:09 17° SW 23:54:09 17° SW visible
